Location: *
(35.8942°N, 23.3025°E)
Time: 14:46:28
(UTC+00:00)

UNISAT 6 - Visible Passes

Search period start: 27 March 2023 00:00
Search period end: 06 April 2023 00:00
Orbit: 602 x 680 km, 97.7° (Epoch: 26 March)

Date Brightness Start Highest point End Pass type
(mag) Time Alt. Az. Time Alt. Az. Time Alt. Az.
27 Mar ? 03:10:05 10° SSE 03:14:22 69° ENE 03:18:47 10° N visible
28 Mar ? 02:01:08 10° ENE 02:02:12 11° ENE 02:03:17 10° NE visible
28 Mar ? 03:33:52 10° S 03:38:09 61° W 03:42:33 10° NNW visible
29 Mar ? 02:22:35 10° ESE 02:25:43 20° ENE 02:28:55 10° NNE visible
29 Mar ? 17:29:23 10° NW 17:31:03 12° WNW 17:32:43 10° W visible
30 Mar ? 02:45:21 10° SE 02:49:18 35° ENE 02:53:23 10° N visible
31 Mar ? 03:08:39 10° SSE 03:12:59 67° ENE 03:17:27 10° N visible
01 Apr ? 01:59:45 10° ENE 02:00:49 11° ENE 02:01:53 10° NE visible
01 Apr ? 03:32:24 10° S 03:36:44 63° W 03:41:12 10° NNW visible
02 Apr ? 02:21:08 10° ESE 02:24:17 20° ENE 02:27:30 10° NNE visible
02 Apr ? 17:27:52 10° NW 17:29:38 12° WNW 17:31:23 10° W visible
03 Apr ? 02:43:51 10° SE 02:47:50 35° ENE 02:51:56 10° N visible
04 Apr ? 03:07:08 10° SSE 03:11:29 66° ENE 03:15:59 10° N visible
05 Apr ? 01:58:16 10° ENE 01:59:18 11° ENE 02:00:20 10° NE visible
05 Apr ? 03:30:50 10° S 03:35:12 65° W 03:39:44 10° NNW visible
